Regional Weather Roundup
Issued by NWS

Home | Current Version | Previous Version | Text Only | Print | Product List | Glossary Off
Versions: 1 2 3 4 5 6 7 8 9 10 11 12 13 14 15 16 17 18 19 20 21 22 23 24 25 26 27 28 29 30 31 32 33 34 35 36 37 38 39 40 41 42 43 44 45 46 47 48 49 50

712
ASUS44 KMEG 230500
RWRTN
TENNESSEE HOURLY STATE WEATHER ROUNDUP
NATIONAL WEATHER SERVICE MEMPHIS TN
1200 AM CDT TUE MAY 23 2017

TNZ002-004-019-021-049-052-054-088>092-230600-
WEST TENNESSEE

CITY           SKY/WX    TMP DP  RH WIND       PRES   REMARKS
MEMPHIS INTL   CLOUDY    69  58  67 SE5       29.91F
NWS MEMPHIS      N/A     65 N/A N/A MISG        N/A
JACKSON        CLOUDY    66  59  78 CALM      29.91F
DYERSBURG      CLOUDY    66  57  72 CALM      29.93F
$$

TNZ008-025-027-028-033-062-065-066-230600-
NORTH MIDDLE TENNESSEE

CITY           SKY/WX    TMP DP  RH WIND       PRES   REMARKS
NASHVILLE      CLOUDY    66  55  67 E6        29.94F
CLARKSVILLE    CLOUDY    63  55  75 CALM      29.94F
SMYRNA           N/A    N/A N/A N/A MISG        N/A
CROSSVILLE     CLOUDY    60  55  83 CALM      29.98F
$$

TNZ061-075-076-078-094-096-097-230600-
SOUTH MIDDLE TENNESSEE

CITY           SKY/WX    TMP DP  RH WIND       PRES   REMARKS
$$

TNZ017-018-042-046-047-230600-
NORTHEAST TENNESSEE

CITY           SKY/WX    TMP DP  RH WIND       PRES   REMARKS
TRI CITIES     CLOUDY    64  58  80 CALM      29.96F
$$

TNZ012-013-036-069-073-074-230600-
CENTRAL EAST TENNESSEE

CITY           SKY/WX    TMP DP  RH WIND       PRES   REMARKS
KNOXVILLE      CLOUDY    67  59  75 CALM      29.94S
OAK RIDGE      CLOUDY    65  56  72 CALM      29.96S
GATLINBURG     PTCLDY    64  63  94 CALM      29.94F
$$

TNZ083-085-099-230600-
SOUTHEAST TENNESSEE

CITY           SKY/WX    TMP DP  RH WIND       PRES   REMARKS
CHATTANOOGA    LGT RAIN  67  64  90 S3        29.96R
$$

SKY/WX REPORTED AS FAIR MEANS FEW OR NO CLOUDS BELOW
12 THOUSAND FEET.





USA.gov is the U.S. government's official web portal to all federal, state and local government web resources and services.